Location: Baia de Cri?
(46.1667°N, 22.7167°E)
Time: 21:00:42
(UTC+00:00)

Tiangong - Visible Passes

Search period start: 08 March 2026 00:00
Search period end: 18 March 2026 00:00
Orbit: 381 x 391 km, 41.5° (Epoch: 8 March)

Date Brightness Start Highest point End Pass type
(mag) Time Alt. Az. Time Alt. Az. Time Alt. Az.
10 Mar 0.8 04:10:22 10° S 04:11:21 11° SSE 04:12:20 10° SE visible
12 Mar 0.3 03:47:04 10° SSW 03:49:11 16° SSE 03:51:17 10° ESE visible
13 Mar 0.6 02:49:44 11° SSE 02:49:57 11° SSE 02:51:01 10° SE visible
14 Mar -0.3 03:25:18 16° SSW 03:26:50 22° SSE 03:29:25 10° ESE visible
15 Mar 0.6 02:28:33 14° SE 02:28:33 14° SE 02:29:36 10° ESE visible
15 Mar -0.9 04:00:55 10° WSW 04:03:50 33° S 04:06:44 10° ESE visible
16 Mar -0.8 03:03:55 27° S 03:04:20 28° SSE 03:07:08 10° ESE visible
17 Mar 0.9 02:07:00 12° ESE 02:07:00 12° ESE 02:07:23 10° ESE visible
17 Mar -1.1 03:39:12 17° WSW 03:41:14 35° S 03:44:11 10° ESE visible
